User: anonymous
Location: Fort Wayne
(41.1310°N, 85.1290°W)
Time: 22:22:23
(UTC-04:00)
Language:

COSMOS 2406 - Orbit

View from above orbital plane
View from above orbital plane
View from above satellite
View from above satellite

Ground track
Ground track

The orbit data is extracted from the following two-line orbital elements,

1 28352U 04021A   14274.49789221  .00000027  00000-0  40804-4 0  4104
2 28352 071.0036 030.6808 0013512 161.9060 268.9046 14.11349167531202
Epoch (UTC): 01 October 2014 11:56:57
Eccentricity: 0.0013512
inclination: 71.0036°
perigee height: 845 km
apogee height: 864 km
right ascension of ascending node: 30.6808°
argument of perigee: 161.9060°
revolutions per day: 14.11349167
mean anomaly at epoch: 268.9046°
orbit number at epoch: 53120

The dashed part of the orbit path shows where the satellite is in the earth's shadow,  

DLR